This demonstration page uses our WeatherBlox Daily Observations layout. Learn more.

Left ArrowRight Arrow

40.92945, -100.16068

Hourly Observations for May 18, 2015

Temp ( °F °C ) Dew Point ( °F °C ) Humidity (%) Winds ( mph kmh ) Pressure ( in mb ) Visibility ( mi km ) Precip ( " mm )
12:15 am 00:15 Clear 54 12.4 49 9.7 84 84 N 8 13 30.09 1019 10 16.0934 N/A
12:35 am 00:35 Clear 54 12 49 9.5 85 85 N 9 15 30.09 1019 10 16.0934 N/A
12:55 am 00:55 Clear 53 11.5 48 9.1 85 85 N 9 15 30.09 1019 10 16.0934 N/A
1:15 am 01:15 Clear 51 10.6 47 8.5 87 87 N 16 26 30.15 1021 10 16.0934 N/A
1:35 am 01:35 Clear 51 10.3 45 7.3 82 82 N 14 22 30.15 1021 10 16.0934 N/A
1:55 am 01:55 Clear 49 9.7 44 6.6 81 81 N 12 19 30.18 1022 10 16.0934 N/A
2:15 am 02:15 Clear 48 9.1 43 6.3 83 83 NNW 9 15 30.18 1022 10 16.0934 N/A
2:35 am 02:35 Clear 47 8.6 43 6.1 84 84 NNW 9 15 30.18 1022 10 16.0934 N/A
2:55 am 02:55 Clear 48 8.7 43 6.1 84 84 NNW 14 22 30.18 1022 10 16.0934 N/A
3:15 am 03:15 Clear 47 8.5 43 6 84 84 NNW 12 19 30.18 1022 10 16.0934 N/A
3:35 am 03:35 Clear 47 8.3 43 5.9 85 85 NNW 15 24 30.21 1023 10 16.0934 N/A
3:55 am 03:55 Clear 47 8.4 42 5.5 82 82 NNW 13 20 30.21 1023 10 16.0934 N/A
4:15 am 04:15 Clear 46 7.8 41 5.1 83 83 NNW 6 9 30.24 1024 10 16.0934 N/A
4:35 am 04:35 Partly Cloudy 45 7.3 41 5.1 86 86 NNW 9 15 30.24 1024 10 16.0934 N/A
4:55 am 04:55 Partly Cloudy 45 7.2 40 4.7 84 84 NNW 13 20 30.27 1025 10 16.0934 N/A
5:15 am 05:15 Clear 44 6.9 40 4.6 85 85 NNW 8 13 30.27 1025 10 16.0934 N/A
5:35 am 05:35 Partly Cloudy 43 6.3 40 4.6 89 89 NW 8 13 30.27 1025 10 16.0934 N/A
5:55 am 05:55 Partly Cloudy 44 6.6 41 4.9 89 89 NNW 8 13 30.27 1025 10 16.0934 N/A
6:15 am 06:15 Partly Cloudy 44 6.8 41 5 88 88 NNW 17 28 30.3 1026 10 16.0934 N/A
6:35 am 06:35 Sunny 46 7.6 40 4.6 82 82 NNW 13 20 30.3 1026 10 16.0934 N/A
6:55 am 06:55 Sunny 46 7.5 40 4.5 81 81 NNW 10 17 30.3 1026 10 16.0934 N/A
7:15 am 07:15 Sunny 46 7.6 41 5 84 84 N 9 15 30.3 1026 10 16.0934 N/A
7:35 am 07:35 Sunny 47 8.2 41 4.8 79 79 N 13 20 30.33 1027 10 16.0934 N/A
7:55 am 07:55 Partly Cloudy 47 8.5 41 4.8 78 78 N 12 19 30.33 1027 10 16.0934 N/A
8:15 am 08:15 Mostly Cloudy 47 8.5 40 4.7 77 77 N 16 26 30.33 1027 10 16.0934 N/A
8:35 am 08:35 Partly Cloudy 48 9 41 4.9 76 76 N 13 20 30.36 1028 10 16.0934 N/A
8:55 am 08:55 Partly Cloudy 48 9 40 4.6 74 74 N 16 26 30.36 1028 10 16.0934 N/A
9:15 am 09:15 Sunny 50 10 41 5.1 72 72 N 13 20 30.33 1027 10 16.0934 N/A
9:35 am 09:35 Sunny 50 10.1 41 5 71 71 N 13 20 30.33 1027 10 16.0934 N/A
9:55 am 09:55 Partly Cloudy 51 10.6 41 5.2 70 70 NNW 12 19 30.33 1027 10 16.0934 N/A
10:15 am 10:15 Mostly Cloudy 52 10.9 42 5.4 69 69 NNW 10 17 30.36 1028 10 16.0934 N/A
10:35 am 10:35 Partly Cloudy 53 11.5 42 5.6 67 67 NNW 12 19 30.36 1028 10 16.0934 N/A
10:55 am 10:55 Partly Cloudy 53 11.7 42 5.4 66 66 N 14 22 30.36 1028 10 16.0934 N/A
11:15 am 11:15 Sunny 55 12.5 43 5.9 64 64 NNW 15 24 30.36 1028 10 16.0934 N/A
11:35 am 11:35 Sunny 55 12.9 43 6.1 64 64 N 10 17 30.36 1028 10 16.0934 N/A
11:55 am 11:55 Sunny 56 13.4 44 6.5 63 63 NNW 13 20 30.36 1028 10 16.0934 N/A
12:15 pm 12:15 Sunny 57 14 44 6.5 61 61 NNW 13 20 30.33 1027 10 16.0934 N/A
12:35 pm 12:35 Sunny 57 14.1 44 6.8 62 62 NNW 12 19 30.33 1027 10 16.0934 N/A
12:55 pm 12:55 Sunny 58 14.5 44 6.5 59 59 NNW 15 24 30.33 1027 10 16.0934 N/A
1:15 pm 13:15 Sunny 59 15 45 7.1 59 59 NNW 13 20 30.33 1027 10 16.0934 N/A
1:35 pm 13:35 Sunny 60 15.5 44 6.6 56 56 N 13 20 30.33 1027 10 16.0934 N/A
1:55 pm 13:55 Sunny 60 15.4 44 6.9 57 57 NNW 13 20 30.3 1026 10 16.0934 N/A
2:15 pm 14:15 Sunny 61 16.1 44 6.7 54 54 NNW 13 20 30.3 1026 10 16.0934 N/A
2:35 pm 14:35 Sunny 61 16.3 44 6.8 54 54 N 14 22 30.3 1026 10 16.0934 N/A
2:55 pm 14:55 Sunny 60 15.5 42 5.6 52 52 NNW 13 20 30.3 1026 10 16.0934 N/A
3:15 pm 15:15 Sunny 61 15.9 42 5.8 51 51 NW 8 13 30.3 1026 10 16.0934 N/A
3:35 pm 15:35 Sunny 60 15.8 43 6.1 53 53 N 7 11 30.3 1026 10 16.0934 N/A
3:55 pm 15:55 Sunny 61 16 44 6.7 54 54 NNE 10 17 30.3 1026 10 16.0934 N/A
4:15 pm 16:15 Sunny 62 16.6 44 6.6 52 52 N 9 15 30.27 1025 10 16.0934 N/A
4:35 pm 16:35 Sunny 63 17 44 6.9 52 52 N 10 17 30.24 1024 10 16.0934 N/A
4:55 pm 16:55 Partly Cloudy 62 16.8 44 6.4 51 51 NE 6 9 30.27 1025 10 16.0934 N/A
5:15 pm 17:15 Sunny 63 17.2 44 6.4 49 49 N 12 19 30.27 1025 10 16.0934 N/A
5:35 pm 17:35 Sunny 63 17.1 44 6.4 50 50 N 12 19 30.24 1024 10 16.0934 N/A
5:55 pm 17:55 Sunny 63 17.2 44 6.7 50 50 N 8 13 30.24 1024 10 16.0934 N/A
6:15 pm 18:15 Sunny 63 17 44 6.9 52 52 NNE 10 17 30.24 1024 10 16.0934 N/A
6:35 pm 18:35 Sunny 62 16.4 43 6.2 51 51 NE 8 13 30.24 1024 10 16.0934 N/A
6:55 pm 18:55 Partly Cloudy 62 16.5 42 5.8 49 49 NNE 9 15 30.24 1024 10 16.0934 N/A
7:15 pm 19:15 Sunny 61 16.1 42 5.5 50 50 NE 10 17 30.24 1024 10 16.0934 N/A
7:35 pm 19:35 Sunny 60 15.6 42 5.4 51 51 NNE 12 19 30.24 1024 10 16.0934 N/A
7:55 pm 19:55 Sunny 59 15.1 42 5.4 53 53 NE 9 15 30.27 1025 10 16.0934 N/A
8:15 pm 20:15 Sunny 58 14.5 42 5.4 55 55 NE 9 15 30.3 1026 10 16.0934 N/A
8:35 pm 20:35 Sunny 56 13.6 42 5.6 59 59 ENE 8 13 30.3 1026 10 16.0934 N/A
8:55 pm 20:55 Clear 55 12.6 42 5.7 63 63 NE 7 11 30.3 1026 10 16.0934 N/A
9:15 pm 21:15 Clear 53 11.6 42 5.7 67 67 NE 6 9 30.33 1027 10 16.0934 N/A
9:35 pm 21:35 Clear 52 11 42 5.8 71 71 NE 6 9 30.33 1027 10 16.0934 N/A
9:55 pm 21:55 Clear 50 10.2 43 6 75 75 NE 6 9 30.33 1027 10 16.0934 N/A
10:15 pm 22:15 Clear 50 10.1 42 5.8 75 75 NE 8 13 30.33 1027 10 16.0934 N/A
10:35 pm 22:35 Clear 51 10.7 42 5.3 70 70 ENE 8 13 30.33 1027 10 16.0934 N/A
10:55 pm 22:55 Clear 48 9 42 5.6 79 79 ENE 7 11 30.36 1028 10 16.0934 N/A
11:15 pm 23:15 Clear 48 9 42 5.5 79 79 ENE 5 7 30.36 1028 10 16.0934 N/A
11:35 pm 23:35 Clear 47 8.3 42 5.4 82 82 ENE 6 9 30.39 1029 10 16.0934 N/A
11:55 pm 23:55 Clear 46 8 41 5.1 82 82 ENE 7 11 30.39 1029 10 16.0934 N/A

Powered by AerisWeather